Flag for Germany Weather past 2 weeks in Brühl (Rhineland), North Rhine-Westphalia, Germany

Now
36 °F

Passing clouds.


Feels Like: 32 °F
Forecast: 38 / 46 °F
Wind: 5 mph from Southwest

Location: Noervenich

Current Time: Mar 4, 2015 at 5:27:58 AM

Latest Report: Mar 4, 2015 at 3:00 AM


Visibility: 19 mi

Pressure: 30.17 "Hg

Humidity: 86%

Dew point: 32 °F

Location of Brühl (Rhineland)Location

Historic Weather in Brühl (Rhineland) — Graph

°F

Brühl (Rhineland) temperature yesterday

Maximum temperature yesterday: 49 °F (at 2:00 PM)
Minimum temperature yesterday: 37 °F (at 11:00 PM)
Average temperature yesterday: 41 °F

Past Weeks' High & Low Weather Summary

 TemperatureHumidityPressure
High52 °F (Mar 1, 2:00 PM)98% (Feb 17, 8:00 PM)30.78 "Hg (Feb 17, 8:00 PM)
Low28 °F (Feb 19, 8:00 AM)45% (Feb 28, 2:00 PM)29.38 "Hg (Feb 21, 5:00 AM)
Average40 °F79%29.96 "Hg
* Reported Feb 17 3:00 AM — Mar 4 3:00 AM, Brühl (Rhineland), Weather by CustomWeather, © 2015

Note: Actual official high and low records may vary slightly from our data, if they occured in-between our weather recording intervals... More about our weather records

Advertising

Brühl (Rhineland) weather history for previous 24 hours

 ConditionsComfort  
Time TempWeatherWind HumidityBarometerVisibility
3:00 AM
Wed, Mar 4
36 °FPassing clouds.5 mph86%30.17 "Hg19 mi
2:00 AM36 °FPassing clouds.5 mph83%30.16 "Hg19 mi
12:00 AM37 °FPassing clouds.5 mph87%30.13 "Hg19 mi
11:00 PM
Tue, Mar 3
37 °FPassing clouds.3 mph90%30.11 "Hg19 mi
9:00 PM38 °FOvercast.3 mph91%30.09 "Hg19 mi
8:00 PM41 °FRain showers. Overcast.5 mph85%30.07 "Hg9 mi
6:00 PM41 °FOvercast.3 mph85%30.02 "Hg19 mi
5:00 PM43 °FOvercast.3 mph85%30.01 "Hg9 mi
3:00 PM49 °FPartly sunny.7 mph52%29.99 "Hg16 mi
2:00 PM49 °FPartly sunny.6 mph49%30.01 "Hg25 mi
12:00 PM46 °FOvercast.6 mph59%30.07 "Hg19 mi
11:00 AM44 °FOvercast.3 mph59%30.09 "Hg19 mi
9:00 AM41 °FOvercast.2 mph69%30.10 "Hg19 mi
8:00 AM38 °FScattered clouds.3 mph74%30.09 "Hg19 mi
6:00 AM38 °FPassing clouds.7 mph77%30.07 "Hg19 mi
5:00 AM38 °FPassing clouds.5 mph77%30.08 "Hg19 mi
Weather by CustomWeather, © 2015

See weather overviewHow to use our weather pages